Flag for Guatemala Weather past 2 weeks in Escuintla, Guatemala

Now
77 °F

Broken clouds.


Feels Like: 79 °F
Forecast: 75 / 98 °F
Wind: 16 mph from North

Location: Guatemala Aeropuertola Aurora


UV Index: 10 (Very high)

Visibility: N/A


Pressure: 30.24 "Hg

Humidity: 47%

Dew point: 55 °F

Location of EscuintlaLocation

Historic Weather in Escuintla

°F

Escuintla temperature yesterday

Maximum temperature yesterday: 77 °F (at 2:00 PM)
Minimum temperature yesterday: 61 °F (at 2:00 AM)
Average temperature yesterday: 68 °F

Past Weeks' High & Low Weather Summary

 TemperatureHumidityPressure
High82 °F (Apr 5, 3:00 PM)94% (Apr 4, 1:00 AM)30.45 "Hg (Apr 4, 1:00 AM)
Low55 °F (Apr 9, 12:00 AM)24% (Apr 12, 4:00 PM)30.12 "Hg (Apr 5, 4:00 PM)
Average69 °F70%30.24 "Hg
* Reported Apr 3 11:00 AM — Apr 18 11:00 AM, Escuintla, Weather by CustomWeather, © 2014

Note: Actual official high and low records may vary slightly from our data, if they occured in-between our weather recording intervals... More about our weather records

Advertising

Historic Weather Conditions — Data for Previous 24 hours

 ConditionsComfort  
Time TempWeatherWind HumidityBarometerVisibility
11:00 AM
Apr 18
75 °FScattered clouds.14 mph54%30.27 "HgN/A
10:00 AM72 °FBroken clouds.12 mph65%30.27 "HgN/A
9:00 AM68 °FBroken clouds.9 mph73%30.30 "Hg4 mi
8:00 AM66 °FPartly sunny.9 mph83%30.27 "Hg4 mi
7:00 AM64 °FBroken clouds.9 mph88%30.24 "Hg5 mi
6:00 AM63 °FPartly sunny.7 mph94%30.24 "Hg4 mi
5:00 AM63 °FFog.7 mph94%30.21 "Hg3 mi
4:00 AM63 °FPassing clouds.7 mph94%30.21 "HgN/A
3:00 AM64 °FPassing clouds.7 mph88%30.21 "HgN/A
2:00 AM64 °FPartly cloudy.9 mph88%30.24 "HgN/A
1:00 AM64 °FClear.7 mph88%30.24 "Hg10 mi
12:00 AM64 °FPassing clouds.7 mph88%30.27 "HgN/A
11:00 PM
Apr 17
66 °FPassing clouds.7 mph83%30.27 "HgN/A
10:00 PM68 °FPassing clouds.5 mph78%30.24 "Hg5 mi
9:00 PM66 °FPassing clouds.2 mph88%30.24 "Hg2 mi
8:00 PM68 °FHaze.5 mph83%30.24 "Hg3 mi
7:00 PM70 °FPassing clouds.5 mph78%30.21 "Hg4 mi
6:00 PM72 °FPassing clouds.5 mph73%30.18 "Hg5 mi
5:00 PM73 °FScattered clouds.9 mph65%30.18 "Hg5 mi
4:00 PM77 °FPartly sunny.9 mph54%30.18 "Hg5 mi
3:00 PM77 °FScattered clouds.12 mph51%30.18 "HgN/A
2:00 PM77 °FBroken clouds.9 mph51%30.21 "HgN/A
1:00 PM75 °FPartly sunny.5 mph57%30.24 "HgN/A
12:00 PM73 °FPartly sunny.7 mph57%30.27 "HgN/A
Weather by CustomWeather, © 2014

See weather overview